Flag for U.S.A. Weather past 2 weeks in Huntsville, Alabama, U.S.A.

Now
42 °F

Overcast.


Feels Like: 38 °F
Forecast: 34 / 51 °F
Wind: 7 mph from Northeast

Location: Huntsville International / Jones Field

Current Time: Dec 19, 2014 at 7:52:45 PM

Latest Report: Dec 19, 2014 at 6:53 PM


Visibility: 10 mi

Pressure: 30.19 "Hg

Humidity: 62%

Dew point: 30 °F

Location of HuntsvilleLocation

Historic Weather in Huntsville — Graph

°F

Huntsville temperature yesterday

Maximum temperature yesterday: 46 °F (at 3:53 PM)
Minimum temperature yesterday: 38 °F (at 12:53 AM)
Average temperature yesterday: 42 °F

Past Weeks' High & Low Weather Summary

 TemperatureHumidityPressure
High71 °F (Dec 5, 1:53 PM)94% (Dec 6, 5:04 AM)30.44 "Hg (Dec 6, 5:04 AM)
Low29 °F (Dec 11, 3:53 AM)33% (Dec 12, 2:53 PM)29.88 "Hg (Dec 15, 8:53 PM)
Average46 °F71%30.21 "Hg
* Reported Dec 4 6:53 PM — Dec 19 6:53 PM, Huntsville, Weather by CustomWeather, © 2014

Note: Actual official high and low records may vary slightly from our data, if they occured in-between our weather recording intervals... More about our weather records

Advertising

Huntsville weather history for previous 24 hours

 ConditionsComfort  
Time TempWeatherWind HumidityBarometerVisibility
6:53 PM
Dec 19
42 °FOvercast.7 mph62%30.19 "Hg10 mi
5:53 PM42 °FMostly cloudy.8 mph65%30.19 "Hg10 mi
4:53 PM43 °FOvercast.9 mph65%30.20 "Hg10 mi
3:53 PM44 °FOvercast.8 mph63%30.19 "Hg9 mi
2:53 PM44 °FOvercast.8 mph63%30.18 "Hg10 mi
1:53 PM44 °FOvercast.7 mph60%30.20 "Hg10 mi
12:53 PM44 °FMore clouds than sun.3 mph58%30.19 "Hg10 mi
11:53 AM44 °FMostly cloudy.8 mph60%30.20 "Hg10 mi
10:53 AM43 °FOvercast.6 mph62%30.24 "Hg10 mi
9:53 AM42 °FOvercast.6 mph65%30.26 "Hg10 mi
8:53 AM40 °FOvercast.6 mph70%30.24 "Hg8 mi
7:53 AM39 °FOvercast.6 mph73%30.24 "Hg7 mi
6:53 AM38 °FOvercast.7 mph83%30.22 "Hg7 mi
5:53 AM38 °FOvercast.7 mph83%30.20 "Hg7 mi
4:53 AM37 °FOvercast.No wind82%30.20 "Hg5 mi
3:53 AM35 °FFog.No wind88%30.19 "Hg4 mi
2:53 AM33 °FFog.3 mph92%30.21 "Hg3 mi
1:53 AM36 °FFog.3 mph89%30.20 "Hg5 mi
12:53 AM37 °FFog.5 mph86%30.20 "Hg5 mi
11:53 PM
Dec 18
38 °FClear.5 mph86%30.21 "Hg7 mi
10:53 PM40 °FPassing clouds.No wind83%30.22 "Hg8 mi
9:53 PM42 °FPassing clouds.5 mph76%30.22 "Hg9 mi
8:53 PM44 °FOvercast.5 mph76%30.21 "Hg10 mi
7:53 PM45 °FOvercast.6 mph71%30.20 "Hg10 mi
Weather by CustomWeather, © 2014

See weather overviewHow to use our weather pages